IBE06WP LSZH-LEMD

Flight info

Callsign IBE06WP
Flight time 1h 53m
Altitude 35000
Route VEBIT4N/32 VEBI4N VEBIT T50 ROTOS Z669 ULMES VADAR NINTU MEBAK REPSI LERGA MINSO NARAK AGN MAQAB TIVLI ELSAP ZAR KONKE TERSA TERS3Z
Aircraft A321/M-SDE2E3FGHIJ4J5M1RWXYZ/LB1D1

Departure

Time 2026-05-07 18:43
Airport Zürich Airport (LSZH)

Arrival

Time 2026-05-07 20:37
Airport Adolfo Suárez Madrid–Barajas Airport (LEMD)
Time Latitude Longitude Altitude Speed Heading
2026-05-07 18:18 47.45434 8.55635 1412 ft 0 kts 186°
2026-05-07 18:32 47.45435 8.55635 1407 ft 2 kts 186°
2026-05-07 18:32 47.45461 8.55639 1408 ft 4 kts 186°
2026-05-07 18:33 47.45488 8.55642 1412 ft 4 kts 174°
2026-05-07 18:33 47.45511 8.55632 1415 ft 4 kts 134°
2026-05-07 18:33 47.45519 8.55607 1412 ft 3 kts 96°
2026-05-07 18:33 47.45521 8.55576 1416 ft 0 kts 96°
2026-05-07 18:37 47.45517 8.55631 1415 ft 13 kts 96°
2026-05-07 18:38 47.45508 8.55765 1413 ft 5 kts 96°
2026-05-07 18:38 47.45512 8.55811 1412 ft 5 kts 64°
2026-05-07 18:38 47.45554 8.55842 1410 ft 9 kts 11°
2026-05-07 18:38 47.45619 8.55862 1409 ft 9 kts 39°
2026-05-07 18:39 47.45633 8.55938 1413 ft 10 kts 94°
2026-05-07 18:39 47.45613 8.56015 1413 ft 13 kts 120°
2026-05-07 18:39 47.45606 8.56060 1410 ft 0 kts 79°
2026-05-07 18:40 47.45615 8.56125 1411 ft 15 kts 79°
2026-05-07 18:40 47.45617 8.56172 1415 ft 3 kts 94°
2026-05-07 18:40 47.45618 8.56231 1412 ft 10 kts 69°
2026-05-07 18:40 47.45715 8.56277 1417 ft 20 kts
2026-05-07 18:41 47.45866 8.56299 1414 ft 17 kts
2026-05-07 18:41 47.45990 8.56320 1413 ft 18 kts
2026-05-07 18:41 47.46045 8.56330 1413 ft 6 kts
2026-05-07 18:41 47.46104 8.56385 1416 ft 14 kts 46°
2026-05-07 18:42 47.46133 8.56417 1413 ft 4 kts 13°
2026-05-07 18:42 47.46163 8.56401 1410 ft 5 kts 324°
2026-05-07 18:42 47.46192 8.56360 1413 ft 7 kts 316°
2026-05-07 18:42 47.46317 8.56192 1414 ft 58 kts 318°
2026-05-07 18:43 47.46796 8.55536 1398 ft 122 kts 318°
2026-05-07 18:43 47.47542 8.54517 1409 ft 167 kts 317°
2026-05-07 18:43 47.48419 8.53339 1938 ft 169 kts 318°
2026-05-07 18:43 47.49302 8.52167 2497 ft 173 kts 321°
2026-05-07 18:44 47.50347 8.51201 2961 ft 176 kts 333°
2026-05-07 18:44 47.51397 8.50356 3433 ft 182 kts 333°
2026-05-07 18:44 47.52397 8.49332 3797 ft 191 kts 317°
2026-05-07 18:44 47.53195 8.47637 4202 ft 199 kts 295°
2026-05-07 18:45 47.53513 8.45611 4596 ft 207 kts 273°
2026-05-07 18:45 47.53293 8.43492 5003 ft 212 kts 250°
2026-05-07 18:45 47.52659 8.41471 5373 ft 219 kts 242°
2026-05-07 18:45 47.51720 8.39663 5755 ft 225 kts 222°
2026-05-07 18:46 47.50409 8.38434 6142 ft 233 kts 202°
2026-05-07 18:46 47.48817 8.37821 6558 ft 241 kts 192°
2026-05-07 18:46 47.47165 8.37295 7053 ft 246 kts 192°
2026-05-07 18:46 47.45459 8.36742 7461 ft 256 kts 193°
2026-05-07 18:47 47.43708 8.36168 7825 ft 270 kts 193°
2026-05-07 18:47 47.41807 8.35534 8283 ft 275 kts 196°
2026-05-07 18:47 47.40063 8.34456 8974 ft 276 kts 212°
2026-05-07 18:47 47.38558 8.32680 9746 ft 276 kts 228°
2026-05-07 18:48 47.37452 8.30370 10445 ft 277 kts 242°
2026-05-07 18:48 47.36554 8.27800 10774 ft 293 kts 242°
2026-05-07 18:48 47.35577 8.25034 10905 ft 314 kts 242°
2026-05-07 18:48 47.34547 8.22142 11226 ft 326 kts 242°
2026-05-07 18:49 47.33480 8.19152 11797 ft 330 kts 242°
2026-05-07 18:49 47.32409 8.16152 12397 ft 334 kts 242°
2026-05-07 18:49 47.31315 8.13093 13024 ft 337 kts 242°
2026-05-07 18:49 47.30590 8.11065 13432 ft 339 kts 242°
2026-05-07 18:50 47.29516 8.08059 13987 ft 343 kts 242°
2026-05-07 18:50 47.27998 8.03805 14714 ft 346 kts 242°
2026-05-07 18:50 47.27290 8.01814 15038 ft 348 kts 243°
2026-05-07 18:50 47.26257 7.98452 15607 ft 351 kts 248°
2026-05-07 18:51 47.25334 7.95116 16134 ft 353 kts 248°
2026-05-07 18:51 47.24399 7.91752 16641 ft 356 kts 248°
2026-05-07 18:51 47.23452 7.88362 17160 ft 359 kts 248°
2026-05-07 18:51 47.22186 7.83851 17828 ft 362 kts 248°
2026-05-07 18:52 47.21535 7.81532 18167 ft 364 kts 248°
2026-05-07 18:52 47.20565 7.78081 18607 ft 367 kts 248°
2026-05-07 18:52 47.19581 7.74611 19033 ft 369 kts 246°
2026-05-07 18:52 47.18320 7.71302 19447 ft 372 kts 236°
2026-05-07 18:53 47.16730 7.68300 19863 ft 374 kts 232°
2026-05-07 18:53 47.15125 7.65342 20250 ft 376 kts 232°
2026-05-07 18:53 47.13492 7.62324 20651 ft 378 kts 232°
2026-05-07 18:53 47.11859 7.59303 21015 ft 380 kts 232°
2026-05-07 18:54 47.10211 7.56255 21391 ft 382 kts 232°
2026-05-07 18:54 47.08554 7.53193 21773 ft 384 kts 232°
2026-05-07 18:54 47.06884 7.50109 22128 ft 386 kts 232°
2026-05-07 18:54 47.05207 7.47017 22468 ft 388 kts 232°
2026-05-07 18:55 47.03523 7.43916 22848 ft 390 kts 232°
2026-05-07 18:55 47.01823 7.40792 23208 ft 393 kts 232°
2026-05-07 18:55 47.00127 7.37686 23581 ft 395 kts 232°
2026-05-07 18:55 46.98398 7.34537 23915 ft 396 kts 232°
2026-05-07 18:56 46.96668 7.31389 24278 ft 398 kts 232°
2026-05-07 18:56 46.94928 7.28230 24610 ft 399 kts 232°
2026-05-07 18:56 46.93186 7.25059 24943 ft 400 kts 233°
2026-05-07 18:56 46.91466 7.21916 25292 ft 401 kts 233°
2026-05-07 18:57 46.89699 7.18680 25629 ft 402 kts 233°
2026-05-07 18:57 46.87960 7.15504 25960 ft 404 kts 233°
2026-05-07 18:57 46.86181 7.12269 26289 ft 405 kts 233°
2026-05-07 18:57 46.84430 7.09092 26609 ft 407 kts 233°
2026-05-07 18:58 46.82653 7.05871 26935 ft 408 kts 233°
2026-05-07 18:58 46.80859 7.02626 27254 ft 409 kts 233°
2026-05-07 18:58 46.79073 6.99401 27566 ft 410 kts 233°
2026-05-07 18:58 46.77271 6.96147 27873 ft 412 kts 233°
2026-05-07 18:59 46.75466 6.92888 28158 ft 413 kts 233°
2026-05-07 18:59 46.73664 6.89635 28491 ft 414 kts 233°
2026-05-07 18:59 46.71836 6.86344 28795 ft 416 kts 233°
2026-05-07 18:59 46.70019 6.83082 29086 ft 417 kts 233°
2026-05-07 19:00 46.68185 6.79789 29365 ft 418 kts 233°
2026-05-07 19:00 46.66358 6.76500 29617 ft 419 kts 234°
2026-05-07 19:00 46.64734 6.72997 29858 ft 419 kts 240°
2026-05-07 19:00 46.63234 6.69368 30094 ft 420 kts 240°
2026-05-07 19:01 46.61711 6.65701 30295 ft 421 kts 240°
2026-05-07 19:01 46.60191 6.62054 30483 ft 422 kts 240°
2026-05-07 19:01 46.58679 6.58446 30674 ft 423 kts 240°
2026-05-07 19:01 46.57125 6.54745 30963 ft 422 kts 240°
2026-05-07 19:02 46.55619 6.51161 31220 ft 421 kts 240°
2026-05-07 19:02 46.54100 6.47545 31476 ft 420 kts 240°
2026-05-07 19:02 46.52576 6.43923 31736 ft 420 kts 240°
2026-05-07 19:02 46.51051 6.40300 31988 ft 419 kts 240°
2026-05-07 19:03 46.49540 6.36715 32237 ft 418 kts 240°
2026-05-07 19:03 46.48013 6.33099 32502 ft 418 kts 240°
2026-05-07 19:03 46.46497 6.29511 32764 ft 417 kts 240°
2026-05-07 19:03 46.44984 6.25929 33005 ft 416 kts 240°
2026-05-07 19:04 46.43476 6.22363 33273 ft 415 kts 240°
2026-05-07 19:04 46.41965 6.18796 33527 ft 415 kts 240°
2026-05-07 19:04 46.40459 6.15245 33759 ft 414 kts 240°
2026-05-07 19:04 46.38970 6.11737 33972 ft 413 kts 239°
2026-05-07 19:05 46.37445 6.08152 34162 ft 413 kts 239°
2026-05-07 19:05 46.35931 6.04598 34336 ft 413 kts 239°
2026-05-07 19:05 46.34425 6.01066 34547 ft 413 kts 239°
2026-05-07 19:05 46.32917 5.97539 34729 ft 413 kts 239°
2026-05-07 19:06 46.31400 5.93999 34919 ft 413 kts 239°
2026-05-07 19:06 46.26897 5.83489 35011 ft 407 kts 239°
2026-05-07 19:07 46.23912 5.76542 35010 ft 406 kts 239°
2026-05-07 19:07 46.20949 5.69675 35016 ft 406 kts 239°
2026-05-07 19:08 46.17961 5.62769 35013 ft 405 kts 239°
2026-05-07 19:08 46.14965 5.55865 35011 ft 406 kts 239°
2026-05-07 19:09 46.11847 5.49073 35013 ft 406 kts 236°
2026-05-07 19:09 46.08606 5.42425 35003 ft 406 kts 236°
2026-05-07 19:10 46.05342 5.35764 35001 ft 406 kts 236°
2026-05-07 19:10 46.02115 5.29093 34990 ft 406 kts 236°
2026-05-07 19:11 45.98893 5.22386 34996 ft 406 kts 236°
2026-05-07 19:11 45.95673 5.15721 34998 ft 406 kts 236°
2026-05-07 19:12 45.92436 5.09058 35001 ft 406 kts 236°
2026-05-07 19:12 45.89204 5.02400 34997 ft 406 kts 236°
2026-05-07 19:13 45.85981 4.95800 34986 ft 406 kts 236°
2026-05-07 19:13 45.82708 4.89115 34990 ft 406 kts 236°
2026-05-07 19:14 45.79479 4.82517 34993 ft 406 kts 236°
2026-05-07 19:14 45.76231 4.75897 34995 ft 406 kts 236°
2026-05-07 19:15 45.72976 4.69295 35010 ft 406 kts 235°
2026-05-07 19:15 45.69716 4.62691 35012 ft 406 kts 235°
2026-05-07 19:16 45.66461 4.56099 35000 ft 406 kts 235°
2026-05-07 19:16 45.63195 4.49508 34997 ft 406 kts 235°
2026-05-07 19:17 45.59931 4.42937 34994 ft 406 kts 235°
2026-05-07 19:17 45.56667 4.36369 34994 ft 406 kts 235°
2026-05-07 19:18 45.53395 4.29803 34993 ft 406 kts 235°
2026-05-07 19:18 45.50112 4.23252 34998 ft 406 kts 235°
2026-05-07 19:19 45.46820 4.16717 34995 ft 406 kts 234°
2026-05-07 19:19 45.43541 4.10193 34999 ft 406 kts 234°
2026-05-07 19:20 45.40272 4.03687 35005 ft 406 kts 234°
2026-05-07 19:20 45.36980 3.97163 35009 ft 406 kts 234°
2026-05-07 19:21 45.33676 3.90658 35018 ft 406 kts 234°
2026-05-07 19:21 45.30372 3.84168 35019 ft 406 kts 234°
2026-05-07 19:22 45.27060 3.77652 35025 ft 406 kts 234°
2026-05-07 19:22 45.23777 3.71145 35012 ft 406 kts 235°
2026-05-07 19:23 45.20549 3.64564 35008 ft 406 kts 235°
2026-05-07 19:23 45.17338 3.57997 35005 ft 406 kts 235°
2026-05-07 19:24 45.14135 3.51488 34997 ft 406 kts 235°
2026-05-07 19:24 45.10887 3.44943 34996 ft 406 kts 235°
2026-05-07 19:25 45.07644 3.38424 35003 ft 406 kts 235°
2026-05-07 19:25 45.04390 3.31878 35002 ft 406 kts 235°
2026-05-07 19:26 45.01134 3.25359 35005 ft 406 kts 234°
2026-05-07 19:26 44.97868 3.18838 35007 ft 406 kts 234°
2026-05-07 19:27 44.94606 3.12326 34995 ft 406 kts 234°
2026-05-07 19:27 44.91347 3.05837 34996 ft 406 kts 234°
2026-05-07 19:28 44.88072 2.99344 35004 ft 406 kts 234°
2026-05-07 19:28 44.84793 2.92858 35001 ft 407 kts 234°
2026-05-07 19:29 44.81657 2.86255 34999 ft 408 kts 237°
2026-05-07 19:29 44.78605 2.79470 34994 ft 408 kts 237°
2026-05-07 19:30 44.75573 2.72785 34991 ft 408 kts 237°
2026-05-07 19:30 44.72472 2.66077 34999 ft 408 kts 236°
2026-05-07 19:31 44.69363 2.59392 34988 ft 409 kts 236°
2026-05-07 19:31 44.66243 2.52692 34981 ft 410 kts 236°
2026-05-07 19:32 44.63117 2.45980 34978 ft 410 kts 236°
2026-05-07 19:32 44.59990 2.39300 34975 ft 410 kts 236°
2026-05-07 19:33 44.56876 2.32660 34965 ft 410 kts 236°
2026-05-07 19:33 44.53737 2.25976 34975 ft 411 kts 236°
2026-05-07 19:34 44.50571 2.19240 34969 ft 411 kts 236°
2026-05-07 19:34 44.47409 2.12543 34968 ft 412 kts 236°
2026-05-07 19:35 44.44276 2.05899 34969 ft 412 kts 236°
2026-05-07 19:35 44.41110 1.99198 34969 ft 412 kts 236°
2026-05-07 19:36 44.37933 1.92504 34966 ft 412 kts 236°
2026-05-07 19:36 44.34765 1.85847 34977 ft 412 kts 236°
2026-05-07 19:37 44.32120 1.80324 34975 ft 412 kts 235°
2026-05-07 19:37 44.28934 1.73656 34969 ft 412 kts 236°
2026-05-07 19:38 44.25821 1.66925 34965 ft 412 kts 237°
2026-05-07 19:38 44.22748 1.60160 34966 ft 413 kts 237°
2026-05-07 19:39 44.19666 1.53431 34961 ft 413 kts 236°
2026-05-07 19:39 44.16551 1.46692 34968 ft 413 kts 236°
2026-05-07 19:40 44.13444 1.39975 34966 ft 413 kts 236°
2026-05-07 19:40 44.10327 1.33245 34962 ft 413 kts 236°
2026-05-07 19:41 44.07205 1.26538 34964 ft 413 kts 236°
2026-05-07 19:41 44.04089 1.19851 34961 ft 413 kts 236°
2026-05-07 19:42 44.00972 1.13180 34974 ft 413 kts 236°
2026-05-07 19:42 43.97838 1.06491 34969 ft 413 kts 236°
2026-05-07 19:43 43.94703 0.99807 34971 ft 413 kts 236°
2026-05-07 19:43 43.91560 0.93139 34970 ft 413 kts 236°
2026-05-07 19:44 43.88210 0.86685 34966 ft 412 kts 226°
2026-05-07 19:44 43.84020 0.81391 34965 ft 411 kts 221°
2026-05-07 19:45 43.79724 0.76083 34979 ft 411 kts 222°
2026-05-07 19:45 43.75511 0.70868 34970 ft 411 kts 222°
2026-05-07 19:46 43.71201 0.65546 34969 ft 411 kts 221°
2026-05-07 19:46 43.66977 0.60358 34966 ft 411 kts 221°
2026-05-07 19:47 43.62699 0.55115 34960 ft 411 kts 221°
2026-05-07 19:47 43.58428 0.49891 34966 ft 410 kts 221°
2026-05-07 19:48 43.54119 0.44638 34968 ft 410 kts 221°
2026-05-07 19:48 43.49866 0.39455 34972 ft 410 kts 221°
2026-05-07 19:49 43.45584 0.34247 34974 ft 411 kts 221°
2026-05-07 19:49 43.41292 0.29047 34962 ft 411 kts 222°
2026-05-07 19:50 43.36989 0.23822 34958 ft 411 kts 222°
2026-05-07 19:50 43.32701 0.18632 34962 ft 412 kts 221°
2026-05-07 19:51 43.28393 0.13440 34970 ft 412 kts 221°
2026-05-07 19:51 43.24130 0.08303 34976 ft 412 kts 221°
2026-05-07 19:52 43.19806 0.03100 34971 ft 412 kts 222°
2026-05-07 19:52 43.15525 -0.02030 34958 ft 412 kts 222°
2026-05-07 19:53 43.11188 -0.07209 34949 ft 413 kts 222°
2026-05-07 19:53 43.06823 -0.12424 34958 ft 414 kts 222°
2026-05-07 19:54 43.02476 -0.17613 34966 ft 415 kts 222°
2026-05-07 19:54 42.98120 -0.22795 34970 ft 415 kts 222°
2026-05-07 19:55 42.93766 -0.27969 34987 ft 415 kts 222°
2026-05-07 19:55 42.89409 -0.33128 35000 ft 415 kts 222°
2026-05-07 19:56 42.85034 -0.38308 35012 ft 416 kts 222°
2026-05-07 19:56 42.80533 -0.43233 35013 ft 417 kts 213°
2026-05-07 19:57 42.75212 -0.46464 35027 ft 420 kts 203°
2026-05-07 19:57 42.69758 -0.49321 35028 ft 420 kts 203°
2026-05-07 19:58 42.64356 -0.52164 35034 ft 420 kts 203°
2026-05-07 19:58 42.58904 -0.55023 35025 ft 420 kts 204°
2026-05-07 19:59 42.53439 -0.57886 35021 ft 421 kts 204°
2026-05-07 19:59 42.48053 -0.60705 35031 ft 421 kts 204°
2026-05-07 20:00 42.42634 -0.63541 35021 ft 421 kts 204°
2026-05-07 20:00 42.37117 -0.66413 35006 ft 421 kts 204°
2026-05-07 20:01 42.31714 -0.69224 35008 ft 422 kts 204°
2026-05-07 20:01 42.26187 -0.72081 35012 ft 422 kts 204°
2026-05-07 20:02 42.20719 -0.74905 35016 ft 422 kts 204°
2026-05-07 20:02 42.15225 -0.77746 34998 ft 423 kts 205°
2026-05-07 20:03 42.09752 -0.80584 34991 ft 425 kts 205°
2026-05-07 20:03 42.04231 -0.83429 34992 ft 426 kts 204°
2026-05-07 20:04 41.98682 -0.86280 34990 ft 427 kts 204°
2026-05-07 20:04 41.93100 -0.89142 34983 ft 427 kts 205°
2026-05-07 20:05 41.87586 -0.91972 34990 ft 428 kts 205°
2026-05-07 20:05 41.82007 -0.94827 34979 ft 428 kts 205°
2026-05-07 20:06 41.76455 -0.97664 34958 ft 428 kts 205°
2026-05-07 20:06 41.70865 -1.00506 34962 ft 429 kts 205°
2026-05-07 20:07 41.65527 -1.03793 34969 ft 421 kts 218°
2026-05-07 20:07 41.61079 -1.08814 34933 ft 417 kts 226°
2026-05-07 20:08 41.58931 -1.11422 34690 ft 417 kts 226°
2026-05-07 20:08 41.56784 -1.14009 34457 ft 417 kts 226°
2026-05-07 20:08 41.54631 -1.16595 34206 ft 417 kts 228°
2026-05-07 20:08 41.52480 -1.19178 33974 ft 418 kts 228°
2026-05-07 20:09 41.50309 -1.21782 33675 ft 419 kts 227°
2026-05-07 20:09 41.48150 -1.24371 33227 ft 420 kts 227°
2026-05-07 20:09 41.46054 -1.26886 32802 ft 420 kts 227°
2026-05-07 20:10 41.41659 -1.32156 31895 ft 415 kts 226°
2026-05-07 20:10 41.39545 -1.34687 31468 ft 412 kts 226°
2026-05-07 20:10 41.37418 -1.37227 31049 ft 410 kts 226°
2026-05-07 20:10 41.35306 -1.39750 30627 ft 407 kts 225°
2026-05-07 20:11 41.33194 -1.42267 30199 ft 404 kts 226°
2026-05-07 20:11 41.31123 -1.44737 29769 ft 402 kts 226°
2026-05-07 20:11 41.29035 -1.47226 29349 ft 399 kts 225°
2026-05-07 20:11 41.27004 -1.49641 28925 ft 396 kts 225°
2026-05-07 20:12 41.24931 -1.52112 28510 ft 393 kts 225°
2026-05-07 20:12 41.22922 -1.54507 28098 ft 391 kts 226°
2026-05-07 20:12 41.20889 -1.56924 27691 ft 388 kts 226°
2026-05-07 20:12 41.18882 -1.59302 27294 ft 386 kts 225°
2026-05-07 20:13 41.16888 -1.61665 26900 ft 383 kts 225°
2026-05-07 20:13 41.14943 -1.63971 26526 ft 381 kts 225°
2026-05-07 20:13 41.12990 -1.66285 26156 ft 379 kts 225°
2026-05-07 20:13 41.11013 -1.68625 25776 ft 376 kts 225°
2026-05-07 20:14 41.09087 -1.70907 25394 ft 374 kts 224°
2026-05-07 20:14 41.07145 -1.73205 25035 ft 372 kts 224°
2026-05-07 20:14 41.05175 -1.75524 24664 ft 370 kts 223°
2026-05-07 20:14 41.03280 -1.77753 24313 ft 368 kts 223°
2026-05-07 20:15 41.01355 -1.80019 23960 ft 366 kts 223°
2026-05-07 20:15 40.99457 -1.82248 23613 ft 364 kts 222°
2026-05-07 20:15 40.97583 -1.84445 23208 ft 362 kts 222°
2026-05-07 20:15 40.95710 -1.86646 22785 ft 360 kts 222°
2026-05-07 20:16 40.93846 -1.88842 22387 ft 358 kts 222°
2026-05-07 20:16 40.91991 -1.91027 21986 ft 356 kts 222°
2026-05-07 20:16 40.90138 -1.93203 21587 ft 356 kts 223°
2026-05-07 20:16 40.88285 -1.95371 21196 ft 355 kts 223°
2026-05-07 20:17 40.86436 -1.97530 20815 ft 353 kts 223°
2026-05-07 20:17 40.84596 -1.99678 20427 ft 352 kts 223°
2026-05-07 20:17 40.82770 -2.01814 20055 ft 350 kts 223°
2026-05-07 20:17 40.80948 -2.03946 19692 ft 348 kts 223°
2026-05-07 20:18 40.79142 -2.06055 19324 ft 347 kts 223°
2026-05-07 20:18 40.77334 -2.08164 18967 ft 345 kts 223°
2026-05-07 20:18 40.75607 -2.10334 18605 ft 342 kts 231°
2026-05-07 20:18 40.74277 -2.12919 18281 ft 340 kts 238°
2026-05-07 20:19 40.73012 -2.15564 18004 ft 340 kts 238°
2026-05-07 20:19 40.71783 -2.18142 17745 ft 339 kts 238°
2026-05-07 20:19 40.70512 -2.20818 17468 ft 338 kts 238°
2026-05-07 20:19 40.69282 -2.23415 17205 ft 337 kts 238°
2026-05-07 20:20 40.68027 -2.26060 16940 ft 336 kts 238°
2026-05-07 20:20 40.66804 -2.28634 16682 ft 335 kts 238°
2026-05-07 20:20 40.65553 -2.31256 16421 ft 334 kts 238°
2026-05-07 20:20 40.64336 -2.33806 16170 ft 333 kts 238°
2026-05-07 20:21 40.63108 -2.36384 15904 ft 332 kts 238°
2026-05-07 20:21 40.61883 -2.38956 15654 ft 331 kts 238°
2026-05-07 20:21 40.60661 -2.41509 15420 ft 330 kts 238°
2026-05-07 20:21 40.59435 -2.44073 15165 ft 329 kts 238°
2026-05-07 20:22 40.58219 -2.46616 14909 ft 328 kts 238°
2026-05-07 20:22 40.57006 -2.49147 14666 ft 327 kts 238°
2026-05-07 20:22 40.55793 -2.51679 14427 ft 326 kts 238°
2026-05-07 20:22 40.54585 -2.54197 14181 ft 325 kts 238°
2026-05-07 20:23 40.53383 -2.56696 13933 ft 324 kts 238°
2026-05-07 20:23 40.52181 -2.59197 13693 ft 323 kts 238°
2026-05-07 20:23 40.51387 -2.60847 13511 ft 322 kts 237°
2026-05-07 20:23 40.50188 -2.63334 13244 ft 321 kts 237°
2026-05-07 20:24 40.48994 -2.65812 12984 ft 320 kts 237°
2026-05-07 20:24 40.47807 -2.68278 12717 ft 319 kts 237°
2026-05-07 20:24 40.46627 -2.70731 12455 ft 318 kts 237°
2026-05-07 20:24 40.45447 -2.73184 12199 ft 317 kts 237°
2026-05-07 20:25 40.44270 -2.75624 11934 ft 316 kts 237°
2026-05-07 20:25 40.43096 -2.78054 11685 ft 314 kts 237°
2026-05-07 20:25 40.41931 -2.80460 11432 ft 313 kts 237°
2026-05-07 20:25 40.40763 -2.82873 11185 ft 312 kts 237°
2026-05-07 20:26 40.39613 -2.85249 10931 ft 302 kts 237°
2026-05-07 20:26 40.38500 -2.87542 10681 ft 293 kts 237°
2026-05-07 20:26 40.37438 -2.89729 10449 ft 287 kts 237°
2026-05-07 20:26 40.36349 -2.91973 10191 ft 286 kts 237°
2026-05-07 20:27 40.35284 -2.94167 9995 ft 285 kts 237°
2026-05-07 20:27 40.34221 -2.96359 9798 ft 284 kts 237°
2026-05-07 20:27 40.33165 -2.98536 9583 ft 283 kts 237°
2026-05-07 20:27 40.32121 -3.00684 9381 ft 282 kts 237°
2026-05-07 20:28 40.31053 -3.02883 9169 ft 282 kts 237°
2026-05-07 20:28 40.30015 -3.05014 8929 ft 281 kts 237°
2026-05-07 20:28 40.28963 -3.07169 8678 ft 279 kts 237°
2026-05-07 20:28 40.27906 -3.09332 8418 ft 278 kts 237°
2026-05-07 20:29 40.26908 -3.11493 8161 ft 277 kts 244°
2026-05-07 20:29 40.26311 -3.13857 8037 ft 277 kts 259°
2026-05-07 20:29 40.26206 -3.16376 7935 ft 279 kts 274°
2026-05-07 20:29 40.26508 -3.18884 7704 ft 277 kts 279°
2026-05-07 20:30 40.26839 -3.21330 7453 ft 268 kts 278°
2026-05-07 20:30 40.27154 -3.23697 7201 ft 261 kts 278°
2026-05-07 20:30 40.27459 -3.26008 6964 ft 254 kts 278°
2026-05-07 20:30 40.27756 -3.28262 6710 ft 247 kts 278°
2026-05-07 20:31 40.28041 -3.30403 6494 ft 231 kts 278°
2026-05-07 20:31 40.28483 -3.32366 6253 ft 223 kts 292°
2026-05-07 20:31 40.29257 -3.34034 6015 ft 213 kts 307°
2026-05-07 20:31 40.30217 -3.35503 5751 ft 206 kts 309°
2026-05-07 20:32 40.31140 -3.36923 5497 ft 203 kts 309°
2026-05-07 20:32 40.32084 -3.38288 5241 ft 203 kts 319°
2026-05-07 20:32 40.33227 -3.39389 5068 ft 203 kts 324°
2026-05-07 20:32 40.34366 -3.40490 5012 ft 204 kts 322°
2026-05-07 20:33 40.35487 -3.41609 4825 ft 202 kts 322°
2026-05-07 20:33 40.36577 -3.42708 4584 ft 197 kts 322°
2026-05-07 20:33 40.37657 -3.43799 4332 ft 194 kts 322°
2026-05-07 20:33 40.38710 -3.44863 4073 ft 188 kts 323°
2026-05-07 20:34 40.39716 -3.45881 3836 ft 178 kts 323°
2026-05-07 20:34 40.40653 -3.46829 3597 ft 166 kts 323°
2026-05-07 20:34 40.41542 -3.47728 3405 ft 162 kts 323°
2026-05-07 20:34 40.42430 -3.48627 3168 ft 159 kts 323°
2026-05-07 20:35 40.43274 -3.49481 2949 ft 150 kts 323°
2026-05-07 20:35 40.44089 -3.50307 2748 ft 147 kts 322°
2026-05-07 20:35 40.44897 -3.51130 2528 ft 147 kts 322°
2026-05-07 20:35 40.45702 -3.51950 2345 ft 146 kts 322°
2026-05-07 20:36 40.46517 -3.52769 2131 ft 148 kts 322°
2026-05-07 20:36 40.47325 -3.53591 1988 ft 148 kts 323°
2026-05-07 20:36 40.48112 -3.54384 1933 ft 130 kts 322°
2026-05-07 20:36 40.48663 -3.54950 1948 ft 75 kts 322°
2026-05-07 20:37 40.48988 -3.55281 1953 ft 51 kts 322°
2026-05-07 20:37 40.49158 -3.55474 1955 ft 23 kts 308°
2026-05-07 20:37 40.49228 -3.55639 1960 ft 19 kts 294°
2026-05-07 20:37 40.49273 -3.55792 1963 ft 18 kts 291°
2026-05-07 20:38 40.49298 -3.55921 1960 ft 13 kts 272°
2026-05-07 20:38 40.49300 -3.56043 1959 ft 13 kts 270°
2026-05-07 20:38 40.49295 -3.56113 1958 ft 6 kts 247°
2026-05-07 20:38 40.49257 -3.56139 1959 ft 10 kts 190°
2026-05-07 20:39 40.49151 -3.56140 1959 ft 21 kts 179°
2026-05-07 20:39 40.48993 -3.56138 1959 ft 21 kts 180°
2026-05-07 20:39 40.48863 -3.56137 1959 ft 12 kts 179°
2026-05-07 20:39 40.48789 -3.56150 1963 ft 10 kts 211°
2026-05-07 20:40 40.48769 -3.56217 1961 ft 6 kts 266°
2026-05-07 20:40 40.48768 -3.56290 1963 ft 12 kts 269°
2026-05-07 20:40 40.48768 -3.56430 1967 ft 17 kts 270°
2026-05-07 20:40 40.48767 -3.56569 1975 ft 14 kts 270°
2026-05-07 20:41 40.48767 -3.56678 1978 ft 10 kts 269°
2026-05-07 20:41 40.48766 -3.56779 1977 ft 14 kts 269°
2026-05-07 20:41 40.48766 -3.56935 1980 ft 20 kts 269°
2026-05-07 20:41 40.48765 -3.57110 1985 ft 18 kts 270°
2026-05-07 20:42 40.48765 -3.57266 1988 ft 18 kts 270°
2026-05-07 20:42 40.48765 -3.57434 1988 ft 18 kts 270°
2026-05-07 20:42 40.48763 -3.57587 1990 ft 16 kts 269°
2026-05-07 20:42 40.48763 -3.57733 1993 ft 18 kts 270°
2026-05-07 20:43 40.48762 -3.57872 1997 ft 10 kts 265°
2026-05-07 20:43 40.48728 -3.57922 1999 ft 7 kts 195°
2026-05-07 20:43 40.48656 -3.57925 1999 ft 13 kts 180°
2026-05-07 20:43 40.48602 -3.57968 2000 ft 8 kts 251°
2026-05-07 20:44 40.48598 -3.58071 2004 ft 17 kts 269°
2026-05-07 20:44 40.48597 -3.58225 2006 ft 15 kts 269°
2026-05-07 20:44 40.48596 -3.58340 2012 ft 11 kts 270°
2026-05-07 20:44 40.48596 -3.58422 2013 ft 9 kts 270°
2026-05-07 20:45 40.48596 -3.58537 2018 ft 16 kts 269°
2026-05-07 20:45 40.48595 -3.58697 2030 ft 17 kts 269°
2026-05-07 20:45 40.48600 -3.58790 2026 ft 2 kts 293°
2026-05-07 20:45 40.48605 -3.58802 2023 ft 1 kts 305°
2026-05-07 20:46 40.48611 -3.58806 2030 ft 3 kts 329°
2026-05-07 20:46 40.48671 -3.58809 2027 ft 11 kts
2026-05-07 20:46 40.48739 -3.58820 2026 ft 7 kts 332°
2026-05-07 20:46 40.48755 -3.58860 2024 ft 1 kts 249°
2026-05-07 20:47 40.48745 -3.58869 2031 ft 2 kts 219°
2026-05-07 20:47 40.48727 -3.58877 2027 ft 3 kts 187°
2026-05-07 20:47 40.48690 -3.58875 2022 ft 6 kts 179°
2026-05-07 20:47 40.48655 -3.58874 2022 ft 5 kts 179°
2026-05-07 20:48 40.48618 -3.58899 2029 ft 6 kts 246°
2026-05-07 20:48 40.48615 -3.58942 2022 ft 4 kts 269°
2026-05-07 20:48 40.48615 -3.58962 2022 ft 0 kts 269°
2026-05-07 20:48 40.48615 -3.58966 2022 ft 0 kts 269°